Regional Weather Roundup
Issued by NWS Jackson, KY

Home | Current Version | Previous Version | Graphics & Text | Print | Product List | Glossary On
Versions: 1 2 3 4 5 6 7 8 9 10 11 12 13 14 15 16 17 18 19 20 21 22 23 24 25 26 27 28 29 30 31 32 33 34 35 36 37 38 39 40 41 42 43 44 45 46 47 48 49 50
000
ASUS43 KJKL 271011
RWRJKL

EAST KENTUCKY HOURLY WEATHER ROUNDUP
NATIONAL WEATHER SERVICE JACKSON KY
500 AM EST THU NOV 27 2014

NOTE: "FAIR" INDICATES FEW OR NO CLOUDS BELOW 12,000 FEET WITH
NO SIGNIFICANT WEATHER AND/OR OBSTRUCTIONS TO VISIBILITY.

* THESE REPORTS ARE NOT UNDER NWS QUALITY CONTROL AND MAY NOT
  REPORT WEATHER SUCH AS PRECIPITATION AND FOG.

KYZ079-080-083-085-087-088-110-112-115-119-120-271100
...EASTERN KENTUCKY...

CITY           SKY/WX    TMP DP  RH WIND       PRES   REMARKS
JACKSON        CLOUDY    33  27  78 N7        30.03R WCI  27
LONDON         LGT SNOW  34  31  88 NW5       30.05R FOG     WCI  30
SOMERSET*      LGT SNOW  32  32 100 CALM      30.10R
MONTICELLO*    LGT SNOW  34  34 100 NW8       30.12R FOG     WCI  27
HARLAN APT*    CLOUDY    34  34 100 CALM      30.01R
BLACK MTN*       N/A     27  27 100 N2          N/A
PIKEVILLE APT* CLOUDY    34  32  93 N7        30.00R WCI  28
BIG SANDY*     CLOUDY    33  30  89 N3        30.03R
MOREHEAD APT*  CLOUDY    32  28  86 N3        30.08R
$$

KYZ035-036-041-042-044-050-067-078-099-271100
...CENTRAL KENTUCKY...

CITY           SKY/WX    TMP DP  RH WIND       PRES   REMARKS
MT STERLING*   CLOUDY    32  30  93 CALM      30.09R
FLEMING/MASON* CLOUDY    30  27  86 NW3       30.10R
DANVILLE*      LGT SNOW  32  32 100 N8        30.11R WCI  25
RICHMOND*      CLOUDY    32  30  93 NW6       30.08R WCI  26
LEXINGTON      LGT SNOW  31  29  92 N8        30.10R FOG     WCI  23
FRANKFORT      LGT SNOW  30  27  88 NW9       30.12R FOG     WCI  22
$$

KYZ091>093-OHZ055-061-077-WVZ005-015-034-035-042-271100
...SOUTHERN OHIO/WEST VIRGINIA...

CITY           SKY/WX    TMP DP  RH WIND       PRES   REMARKS
COVINGTON      CLOUDY    29  21  72 NW9       30.12R WCI  20
COLUMBUS       CLOUDY    30  27  86 NW7       30.06R WCI  23
DAYTON         CLOUDY    29  26  89 NW12      30.11R FOG     WCI  19
WILMINGTON     CLOUDY    27  22  81 NW8       30.08R WCI  19
HUNTINGTON     FLURRIES  33  28  81 N6        30.04R WCI  28
CHARLESTON     CLOUDY    36  34  92 CALM      30.01R FOG
PINEVILLE*     CLOUDY    37  37 100 MISG      30.01S FOG
BECKLEY        SNOW      32  31  96 CALM      29.94R VSB 1/4
BLUEFIELD      CLOUDY    34  30  85 CALM      29.93S
$$

VAZ002-007-008-TNZ017-027-036-066-071-271100
...SOUTHWEST VIRGINIA/EAST TENNESSEE...

CITY           SKY/WX    TMP DP  RH WIND       PRES   REMARKS
WISE*          LGT SNOW  32  32 100 CALM      29.96R
JONESVILLE*    LGT SNOW  32  32 100 CALM      30.03R
ABINGDON*      LGT SNOW  35  34  98 CALM      29.97S VSB 3/4
BRISTOL        LGT SNOW  33  33 100 SW5       30.00S FOG     WCI  29
KNOXVILLE      CLOUDY    39  34  82 SW13      30.07R WCI  31
OAK RIDGE      MOCLDY    39  31  72 VRB6      30.08R WCI  35
CROSSVILLE     CLOUDY    36  29  75 W18G25    30.06R WCI  26
NASHVILLE      CLOUDY    39  34  82 NW9G20    30.19R WCI  33
$$

...KEY TO REMARKS...
VSB - VISIBILITY IN MILES
WCI - WIND CHILL INDEX
HX  - HEAT INDEX

$$


USA.gov is the U.S. government's official web portal to all federal, state and local government web resources and services.